ORBCOMM FM116 [+] (41189 NORAD) Tracking and Keplerian Element Data

This shows tracking and keplerian element data for the satellite.

Feedback or suggestion? Click here.




ElementValue
Catalog41189
NameORBCOMM FM116 [+]
Epoch Orbit13765
Epoch Day198.46266809
Epoch Year2018
RAAN197.7698
Inclination47.0002
Eccentricity0.0001799
Argument of Perigee341.6468
Mean Anonmoly18.4351
Mean Motion14.54721165
Decay Rate8.6E-07
L11 41189U 15081L 18198.46266809 .00000086 00000-0 58214-4 0 9994
L22 41189 47.0002 197.7698 0001799 341.6468 18.4351 14.54721165137653

Live tracking and technical data element details for ORBCOMM FM116 [+] (NORAD 41189). ORBCOMM FM116 [+] can be tracked NOW for your location showing map with azimuth and elevation plus other details from your city location.

Track the satellite on the map from your city or location and see movement details for azimuth, elevation, latitude, longitude, range, height, and movement on the map or in text.







IsCatalogInMostPopularTable: catalog: 41189, numindb: 54
Update: records affected: 1



GetName: 41189 ORBCOMM FM116 [+]

Hit Count: updated at: Fri, 20 Jul 2018 20:33:21 GMT